User: anonymous   Login
Location: Unspecified
(0.0000°N, 0.0000°E)
Time: 04:14:15
(UTC+00:00)
Language:

CANX 3B (BRITE-ASRA) - Orbit

View from above orbital plane
View from above orbital plane
View from above satellite
View from above satellite

Ground track
Ground track

The orbit data is extracted from the following two-line orbital elements,

1 39091U 13009F   16120.55924731  .00000039  00000-0  29292-4 0  9991
2 39091  98.5833 322.6024 0011710  93.8425 266.4100 14.34969930166178
Epoch (UTC): 29 April 2016 13:25:18
Eccentricity: 0.0011710
inclination: 98.5833°
perigee height: 767 km
apogee height: 783 km
right ascension of ascending node: 322.6024°
argument of perigee: 93.8425°
revolutions per day: 14.34969930
mean anomaly at epoch: 266.4100°
orbit number at epoch: 16617

The dashed part of the orbit path shows where the satellite is in the earth's shadow,  

DLR